Showing default

FENGYUN 3D, 43010

Orbit data source: Space-Track

FENGYUN 3D, 43010 is a payload satellite owned by CNMSC (CN) in SSO that was launched on Tue, 14 Nov 2017 UTC via a CHANG ZHENG 4C launch vehicle from the Taiyaun Space Center, China (TSC). Payload-class satellites include a variety of spacecraft equipped with specific instruments for various scientific and technological missions. These include communications satellites like Starlink; space stations such as the ISS; scientific satellites like the Hubble; Earth observation satellites from companies like Planet Labs, Umbra, and HawkEye 360; GPS; miniature CubeSats for education and research; and military/defense satellites.

Loading next visibility...
Identifier
43010, 2017-072A
Orbit
SSO
Country
Flag of CNCN / PRC
Related business
Manufacturer
SISE
Mission
Operational Civil Weather
Bus & Motor
FY-3, Unknown motor
Mass
2,450 kg wet, 2,250 kg dry
Launch date (UTC)
2017-11-14 (8 years ago)
Launch vehicle
CHANG ZHENG 4C
Launch site
Taiyaun Space Center, China (TSC)
Object type
Payload
Rocket body
Debris
Shape & HBR
Box + 2 Pan, 5.0 m
Radar Cross Section
15.104 m², Large (>1 m²)

Expand to show TLE details & history
Last TLE update: 14 hours ago

TLE from 14 hours ago
0 FENGYUN 3D
1 43010U 17072A   25261.31824568  .00000089  00000-0  63931-4 0  9991
2 43010  98.9736 226.4088 0002534  96.4395 263.7069 14.19642777406418
Epoch: 2025-09-18T07:38Z
TLE epoch observation values (Epoch: 2025-09-18T07:38:16.426Z)
Latitude
-0.00004°
Longitude
114.3588°
Altitude
829.667 km
Speed
7.438 km/s
True Right ascension
15h 05m 38s
True Declination
0° 00' 00"
Sunlit
Object was in daylight at epoch
Visualization orbit readout
Latitude
Unknown
Longitude
Unknown
Altitude
Unknown
Speed
Unknown
Apparent Right ascension
Unknown
Apparent Declination
Unknown
Sunlit
N/A
Visualization observer readout
Local Sidereal Time
14:26:34
Azimuth
Unknown
Elevation
Unknown
Doppler factor
Unknown
Orbital elements
Apogee altitude
825.558 km
Perigee altitude
821.908 km
Semi-major axis
7,201.87 km
Eccentricity
0.00025
Inclination
98.9736°
RAAN
226.4088°
Arg. of periapsis
96.4395°
True anomaly
263.67804°
Mean anomaly
263.7069°
Eccentric anomaly
263.69247°
Mean motion
3.5512 °/min
Orbital period
101.37 mins
BSTAR
0.000063931
Loading maneuver chart data...
Computing Atmospheric mass density...
Loading historical data...
Loading historical data...
Loading historical data...
Loading historical data...
Loading historical data...
Loading historical data...
Loading historical data...
Other satellites on launch #72 in the year 2017 (2017-11-14 UTC)

Documentation

Showing up to 5 results
|